Location: Blanot
(47.1713°N, 4.2340°E)
Time: 03:50:10
(UTC+00:00)

COSMOS 2406 - Visible Passes

Search period start: 23 October 2020 00:00
Search period end: 02 November 2020 00:00
Orbit: 844 x 863 km, 71.0° (Epoch: 22 October)

Date Brightness Start Highest point End Pass type
(mag) Time Alt. Az. Time Alt. Az. Time Alt. Az.
23 Oct 5.4 03:32:49 10° SSE 03:37:08 23° ESE 03:41:29 10° NE visible
23 Oct 3.2 05:15:22 10° SW 05:20:58 62° WNW 05:26:37 10° NNE visible
24 Oct 5.3 03:21:18 10° SSE 03:25:40 23° ESE 03:30:01 10° NE visible
24 Oct 3.2 05:03:54 10° SW 05:09:30 61° WNW 05:15:08 10° NNE visible
25 Oct 5.3 03:09:48 10° SSE 03:14:11 24° ESE 03:18:34 10° NE visible
25 Oct 3.2 04:52:26 10° SW 04:58:01 60° WNW 05:03:40 10° NNE visible
26 Oct 5.2 02:59:32 15° SE 03:02:42 24° ESE 03:07:07 10° NE visible
26 Oct 3.2 04:41:41 14° SW 04:46:33 59° WNW 04:52:11 10° NNE visible
27 Oct 5.1 02:49:38 21° SE 02:51:13 24° ESE 02:55:40 10° NE visible
27 Oct 3.2 04:31:47 25° SW 04:35:05 59° WNW 04:40:42 10° NNE visible
28 Oct 5.0 02:39:29 24° ESE 02:39:44 24° ESE 02:44:12 10° NE visible
28 Oct 3.2 04:21:37 38° WSW 04:23:37 58° WNW 04:29:14 10° NNE visible
29 Oct 5.2 02:29:09 24° E 02:29:09 24° E 02:32:45 10° NE visible
29 Oct 3.2 04:11:16 52° W 04:12:08 57° WNW 04:17:45 10° NNE visible
30 Oct 5.4 02:18:39 21° ENE 02:18:39 21° ENE 02:21:18 10° NE visible
30 Oct 3.2 04:00:46 57° NW 04:00:46 57° NW 04:06:17 10° NNE visible
30 Oct 4.9 05:43:21 10° WNW 05:46:18 14° NW 05:49:15 10° N visible
31 Oct 5.6 02:08:03 18° ENE 02:08:03 18° ENE 02:09:51 10° NE visible
31 Oct 3.6 03:50:09 50° NNW 03:50:09 50° NNW 03:54:48 10° NNE visible
31 Oct 5.0 05:32:15 11° WNW 05:34:51 14° NW 05:37:45 10° N visible
01 Nov 5.8 01:57:21 14° NE 01:57:21 14° NE 01:58:23 10° NE visible
01 Nov 4.0 03:39:27 40° N 03:39:27 40° N 03:43:20 10° NNE visible
01 Nov 4.9 05:21:33 12° NW 05:23:23 14° NW 05:26:16 10° N visible
